Portada
METAR-TAF:

METAR-TAF

Aeroports :

Musoma, Tanzània

latitud: 01-30S, longitud: 033-48E, altitud: 1147 m

Observació

L'informe es va fer fa 12 hores i 56 minuts, a les 12:00 UTC
Vent 10 kt del Nord/Nord-Oest
Temperatura 25°C
Humitat 69%
Pressió 1015 hPa
Visibilitat 10 km o més
Escasses núvols a una alçada de 2200 ft
Escasses núvols a una alçada de 2400 ft, Cumulonimbus.
Cel ennuvolat a una alçada de 10000 ft

METAR: HTMU 141200Z 34010KT 9999 FEW022 FEW024CB BKN100 25/19 Q1015

Hora: 03:56 (00:56 UTC)


TAF: manca

Observacions i pronòstics meteorològics de més de 4000 aeroports (METAR i TAF).

Les estacions disponibles són els punts grocs i vermells al mapa.

Posi el ratolí al punt desitjat per veure el nom de l'estació.

Feu clic per veure les observacions i els pronòstics meteorològics.

Per canviar el mapa: feu clic els botons verds amb una creu de color negre per apropar; al botó verd amb un guió per allunyar la imatge; o en les fletxes verdes per a mapes adjacents.


METAR-TAF: